• In Österreich
  • Länderverzeichnis
  • Für 7 Tage
  • Wassertemperatur
  • Satellitenkarten
  • Wetterkarte
  • News
  • Widgets
  • user-avatar
    Anmelden

    Stündliche Wetter Vezirköprü

    Heute, 23 Juli, Montag

    Zeit Temperatur Niederschläge Wind Luftdruck Luftfeuchtigkeit
    00:00 +21°C° 0,1 mm 1 m/S 725 mmHg 89%
    01:00 +21°C° 0,1 mm 1 m/S 724 mmHg 89%
    02:00 +20°C° 0 mm 1 m/S 724 mmHg 90%
    03:00 +20°C° 0 mm 1 m/S 724 mmHg 89%
    04:00 +20°C° 0 mm 1 m/S 724 mmHg 89%
    05:00 +20°C° 0 mm 1 m/S 724 mmHg 88%
    06:00 +22°C° 0 mm 1 m/S 724 mmHg 79%
    07:00 +23°C° 0 mm 0 m/S 724 mmHg 69%
    08:00 +25°C° 0 mm 0 m/S 724 mmHg 60%
    09:00 +26°C° 0 mm 0 m/S 724 mmHg 55%
    10:00 +29°C° 0 mm 1 m/S 723 mmHg 50%
    11:00 +31°C° 0 mm 1 m/S 723 mmHg 45%
    12:00 +31°C° 0,3 mm 2 m/S 723 mmHg 45%
    13:00 +31°C° 0,3 mm 2 m/S 723 mmHg 45%
    14:00 +31°C° 0,3 mm 2 m/S 723 mmHg 45%
    15:00 +31°C° 0,5 mm 2 m/S 722 mmHg 49%
    16:00 +30°C° 0,5 mm 2 m/S 722 mmHg 53%
    17:00 +29°C° 0,5 mm 3 m/S 722 mmHg 56%
    18:00 +27°C° 0,4 mm 2 m/S 722 mmHg 65%
    19:00 +25°C° 0,4 mm 2 m/S 722 mmHg 73%
    20:00 +24°C° 0,4 mm 2 m/S 722 mmHg 81%
    21:00 +23°C° 0 mm 1 m/S 722 mmHg 82%
    22:00 +23°C° 0 mm 1 m/S 722 mmHg 84%
    23:00 +22°C° 0 mm 1 m/S 722 mmHg 85%

    Morgen, 24 Juli, Dienstag

    Zeit Temperatur Niederschläge Wind Luftdruck Luftfeuchtigkeit
    00:00 +22°C° 0 mm 1 m/S 721 mmHg 84%
    01:00 +22°C° 0 mm 1 m/S 721 mmHg 83%
    02:00 +22°C° 0 mm 1 m/S 721 mmHg 82%
    03:00 +22°C° 0 mm 1 m/S 721 mmHg 81%
    04:00 +22°C° 0 mm 1 m/S 721 mmHg 80%
    05:00 +22°C° 0 mm 1 m/S 721 mmHg 79%
    06:00 +24°C° 0 mm 2 m/S 721 mmHg 69%
    07:00 +27°C° 0 mm 2 m/S 721 mmHg 60%
    08:00 +29°C° 0 mm 2 m/S 721 mmHg 51%
    09:00 +31°C° 0 mm 2 m/S 720 mmHg 45%
    10:00 +34°C° 0 mm 2 m/S 720 mmHg 40%
    11:00 +36°C° 0 mm 2 m/S 720 mmHg 34%
    12:00 +36°C° 0 mm 2 m/S 720 mmHg 34%
    13:00 +36°C° 0 mm 2 m/S 720 mmHg 33%
    14:00 +37°C° 0 mm 2 m/S 719 mmHg 32%
    15:00 +35°C° 0,3 mm 3 m/S 719 mmHg 38%
    16:00 +34°C° 0,3 mm 3 m/S 719 mmHg 44%
    17:00 +31°C° 0,3 mm 3 m/S 718 mmHg 51%
    18:00 +29°C° 0 mm 3 m/S 719 mmHg 59%
    19:00 +28°C° 0 mm 2 m/S 719 mmHg 67%
    20:00 +26°C° 0 mm 2 m/S 719 mmHg 75%
    21:00 +25°C° 0 mm 2 m/S 719 mmHg 78%
    22:00 +25°C° 0 mm 2 m/S 719 mmHg 81%
    23:00 +25°C° 0 mm 2 m/S 720 mmHg 84%

    übermorgen, 25 Juli, Mittwoch

    Zeit Temperatur Niederschläge Wind Luftdruck Luftfeuchtigkeit
    00:00 +24°C° 0 mm 2 m/S 720 mmHg 87%
    01:00 +23°C° 0 mm 1 m/S 720 mmHg 90%
    02:00 +23°C° 0 mm 1 m/S 719 mmHg 93%
    03:00 +23°C° 0 mm 1 m/S 719 mmHg 93%
    04:00 +23°C° 0 mm 1 m/S 720 mmHg 93%
    05:00 +21°C° 0 mm 0 m/S 720 mmHg 93%
    06:00 +23°C° 0 mm 0 m/S 720 mmHg 84%
    07:00 +27°C° 0 mm 1 m/S 720 mmHg 74%
    08:00 +29°C° 0 mm 1 m/S 721 mmHg 65%
    09:00 +30°C° 0 mm 1 m/S 721 mmHg 58%
    10:00 +32°C° 0 mm 1 m/S 721 mmHg 52%
    11:00 +34°C° 0 mm 2 m/S 721 mmHg 45%
    12:00 +34°C° 0,5 mm 2 m/S 721 mmHg 45%
    13:00 +34°C° 0,5 mm 2 m/S 721 mmHg 46%
    14:00 +34°C° 0,5 mm 2 m/S 721 mmHg 46%
    15:00 +32°C° 0,8 mm 2 m/S 721 mmHg 50%
    16:00 +31°C° 0,8 mm 3 m/S 721 mmHg 54%
    17:00 +31°C° 0,8 mm 3 m/S 721 mmHg 57%
    18:00 +29°C° 0,2 mm 3 m/S 721 mmHg 66%
    19:00 +27°C° 0,2 mm 2 m/S 722 mmHg 76%
    20:00 +25°C° 0,2 mm 2 m/S 722 mmHg 85%
    21:00 +24°C° 0 mm 1 m/S 722 mmHg 87%
    22:00 +24°C° 0 mm 1 m/S 722 mmHg 89%
    23:00 +23°C° 0 mm 1 m/S 722 mmHg 91%

    26 Juli, Donnerstag

    Zeit Temperatur Niederschläge Wind Luftdruck Luftfeuchtigkeit
    00:00 +23°C° 0 mm 1 m/S 722 mmHg 89%
    01:00 +23°C° 0 mm 1 m/S 722 mmHg 88%
    02:00 +22°C° 0 mm 1 m/S 722 mmHg 87%
    03:00 +22°C° 0 mm 1 m/S 723 mmHg 86%
    04:00 +20°C° 0 mm 0 m/S 723 mmHg 85%
    05:00 +20°C° 0 mm 0 m/S 723 mmHg 83%
    06:00 +24°C° 0 mm 1 m/S 723 mmHg 75%
    07:00 +27°C° 0 mm 1 m/S 723 mmHg 66%
    08:00 +29°C° 0 mm 1 m/S 724 mmHg 57%
    09:00 +30°C° 0 mm 2 m/S 724 mmHg 53%
    10:00 +31°C° 0 mm 2 m/S 724 mmHg 49%
    11:00 +34°C° 0 mm 2 m/S 723 mmHg 44%
    12:00 +34°C° 0 mm 3 m/S 723 mmHg 45%
    13:00 +34°C° 0 mm 3 m/S 723 mmHg 46%
    14:00 +34°C° 0 mm 3 m/S 723 mmHg 47%
    15:00 +33°C° 1 mm 3 m/S 723 mmHg 52%
    16:00 +31°C° 1 mm 3 m/S 723 mmHg 58%
    17:00 +30°C° 1 mm 3 m/S 723 mmHg 64%
    18:00 +28°C° 0,1 mm 3 m/S 724 mmHg 72%
    19:00 +26°C° 0,1 mm 2 m/S 724 mmHg 80%
    20:00 +24°C° 0,1 mm 2 m/S 724 mmHg 88%
    21:00 +24°C° 0 mm 1 m/S 724 mmHg 89%
    22:00 +23°C° 0 mm 1 m/S 724 mmHg 90%
    23:00 +23°C° 0 mm 1 m/S 724 mmHg 92%

    27 Juli, Freitag

    Zeit Temperatur Niederschläge Wind Luftdruck Luftfeuchtigkeit
    00:00 +23°C° 0 mm 1 m/S 724 mmHg 91%
    01:00 +22°C° 0 mm 1 m/S 724 mmHg 90%
    02:00 +20°C° 0 mm 0 m/S 724 mmHg 89%
    03:00 +22°C° 0 mm 1 m/S 724 mmHg 89%
    04:00 +22°C° 0 mm 1 m/S 724 mmHg 88%
    05:00 +22°C° 0 mm 1 m/S 724 mmHg 88%
    06:00 +24°C° 0 mm 1 m/S 724 mmHg 79%
    07:00 +26°C° 0 mm 1 m/S 724 mmHg 70%
    08:00 +28°C° 0 mm 1 m/S 724 mmHg 62%
    09:00 +29°C° 0 mm 2 m/S 724 mmHg 56%
    10:00 +31°C° 0 mm 2 m/S 724 mmHg 51%
    11:00 +32°C° 0 mm 2 m/S 724 mmHg 46%
    12:00 +33°C° 0 mm 3 m/S 724 mmHg 46%
    13:00 +33°C° 0 mm 4 m/S 724 mmHg 47%
    14:00 +34°C° 0 mm 4 m/S 724 mmHg 48%
    15:00 +33°C° 0,1 mm 4 m/S 724 mmHg 52%
    16:00 +32°C° 0,1 mm 4 m/S 724 mmHg 56%
    17:00 +30°C° 0,1 mm 4 m/S 724 mmHg 61%
    18:00 +28°C° 0 mm 3 m/S 724 mmHg 69%
    19:00 +26°C° 0 mm 2 m/S 724 mmHg 78%
    20:00 +24°C° 0 mm 1 m/S 724 mmHg 87%
    21:00 +23°C° 0 mm 1 m/S 724 mmHg 88%
    22:00 +23°C° 0 mm 1 m/S 724 mmHg 90%
    23:00 +22°C° 0 mm 1 m/S 724 mmHg 92%

    28 Juli, Samstag

    Zeit Temperatur Niederschläge Wind Luftdruck Luftfeuchtigkeit
    00:00 +22°C° 0 mm 1 m/S 723 mmHg 91%
    01:00 +22°C° 0 mm 1 m/S 723 mmHg 91%
    02:00 +22°C° 0 mm 1 m/S 723 mmHg 90%
    03:00 +22°C° 0 mm 1 m/S 723 mmHg 90%
    04:00 +21°C° 0 mm 1 m/S 723 mmHg 89%
    05:00 +21°C° 0 mm 1 m/S 723 mmHg 88%
    06:00 +23°C° 0 mm 1 m/S 723 mmHg 79%
    07:00 +26°C° 0 mm 1 m/S 723 mmHg 69%
    08:00 +28°C° 0 mm 1 m/S 723 mmHg 59%
    09:00 +29°C° 0 mm 2 m/S 723 mmHg 55%
    10:00 +30°C° 0 mm 2 m/S 723 mmHg 50%
    11:00 +33°C° 0 mm 3 m/S 723 mmHg 45%
    12:00 +33°C° 0 mm 3 m/S 723 mmHg 45%
    13:00 +34°C° 0 mm 4 m/S 723 mmHg 46%
    14:00 +34°C° 0 mm 4 m/S 722 mmHg 46%
    15:00 +33°C° 0 mm 4 m/S 722 mmHg 50%
    16:00 +32°C° 0 mm 4 m/S 722 mmHg 55%
    17:00 +30°C° 0 mm 4 m/S 722 mmHg 59%
    18:00 +28°C° 0 mm 3 m/S 723 mmHg 68%
    19:00 +26°C° 0 mm 2 m/S 723 mmHg 77%
    20:00 +24°C° 0 mm 1 m/S 723 mmHg 86%
    21:00 +23°C° 0 mm 1 m/S 723 mmHg 88%
    22:00 +23°C° 0 mm 1 m/S 723 mmHg 89%
    23:00 +22°C° 0 mm 1 m/S 723 mmHg 91%
    Mehr zeigen